Weatherford, Texas, United States (76085)
Lat: 32.76N, Lon: 97.8W
Wx Zone: TXZ117
Local Info
Past Weather Observations for Yesterday

NOTE: This archive is for the closest National Weather Service station to Weatherford. Information may differ from the station used for current weather conditions.

Click here for Long-term Archive

Time Weather Temperature Dewpoint Humidity Pressure Winds Precip Visibility
23:53
Overcast
Fog And Mist
50°F / 10°C 48°F / 9°C 94% 29.89 in
(1012 mb)
S 5.8 mph
(S 9 kph)
0.00 in
(0.00 mm)
4SM
22:53
Overcast
Light Rain
50°F / 10°C 48°F / 9°C 94% 29.89 in
(1012 mb)
SE 8.1 mph
(SE 13 kph)
0.04 in
(1.02 mm)
6SM
22:31
Overcast
Light Rain
50°F / 10°C 48°F / 9°C 94% 29.89 in
(1012 mb)
SW 6.9 mph
(SW 11 kph)
0.04 in
(1.02 mm)
3SM
21:53
Overcast
Light Rain
48°F / 9°C 48°F / 9°C 100% 29.89 in
(1012 mb)
SSE 3.5 mph
(SSE 6 kph)
0.09 in
(2.29 mm)
2SM
21:19
Overcast
Rain
48°F / 9°C 48°F / 9°C 100% 29.89 in
(1012 mb)
S 8.1 mph
(S 13 kph)
0.06 in
(1.52 mm)
2SM
21:09
Overcast
Rain
48°F / 9°C 46°F / 8°C 94% 29.89 in
(1012 mb)
S 6.9 mph
(S 11 kph)
0.04 in
(1.02 mm)
1 3/4SM
21:00
Overcast
Light Rain
48°F / 9°C 46°F / 8°C 94% 29.89 in
(1012 mb)
S 8.1 mph
(S 13 kph)
0.01 in
(0.25 mm)
2SM
20:53
Overcast
Light Rain
48°F / 9°C 46°F / 8°C 94% 29.89 in
(1012 mb)
S 6.9 mph
(S 11 kph)
0.06 in
(1.52 mm)
1 3/4SM
20:46
Overcast
Light Rain
48°F / 9°C 46°F / 8°C 94% 29.89 in
(1012 mb)
S 8.1 mph
(S 13 kph)
0.05 in
(1.27 mm)
2SM
19:53
Overcast
Light Rain
46°F / 8°C 46°F / 8°C 100% 29.92 in
(1013 mb)
SSE 10.4 mph
(SSE 17 kph)
0.05 in
(1.27 mm)
1 1/2SM
19:50
Overcast
Light Rain
46°F / 8°C 46°F / 8°C 100% 29.92 in
(1013 mb)
SSE 8.1 mph
(SSE 13 kph)
0.05 in
(1.27 mm)
1 3/4SM
19:42
Overcast
Light Rain
46°F / 8°C 46°F / 8°C 100% 29.92 in
(1013 mb)
SSE 10.4 mph
(SSE 17 kph)
0.04 in
(1.02 mm)
2SM
19:33
Overcast
Light Rain
46°F / 8°C 46°F / 8°C 100% 29.92 in
(1013 mb)
SSE 10.4 mph
(SSE 17 kph)
0.03 in
(0.76 mm)
1 3/4SM
19:24
Overcast
Light Rain
46°F / 8°C 46°F / 8°C 100% 29.92 in
(1013 mb)
SSE 10.4 mph
(SSE 17 kph)
0.02 in
(0.51 mm)
2SM
19:12
Overcast
Light Rain
46°F / 8°C 46°F / 8°C 100% 29.92 in
(1013 mb)
SSE 9.2 mph
(SSE 15 kph)
0.01 in
(0.25 mm)
1 3/4SM
19:02
Overcast
Light Rain
46°F / 8°C 45°F / 7°C 93% 29.92 in
(1013 mb)
SE 9.2 mph
(SE 15 kph)
0.01 in
(0.25 mm)
2SM
18:53
Overcast
Light Rain
46°F / 8°C 45°F / 7°C 93% 29.92 in
(1013 mb)
SE 9.2 mph
(SE 15 kph)
0.05 in
(1.27 mm)
1 3/4SM
18:45
Overcast
Light Rain
46°F / 8°C 45°F / 7°C 93% 29.92 in
(1013 mb)
SE 9.2 mph
(SE 15 kph)
0.05 in
(1.27 mm)
1 1/2SM
18:36
Overcast
Light Rain
46°F / 8°C 45°F / 7°C 93% 29.92 in
(1013 mb)
SE 9.2 mph
(SE 15 kph)
0.04 in
(1.02 mm)
2SM
18:00
Overcast
Rain
46°F / 8°C 45°F / 7°C 93% 29.92 in
(1013 mb)
SE 9.2 mph
(SE 15 kph)
0.01 in
(0.25 mm)
2SM
17:11
Overcast
Light Rain
46°F / 8°C 45°F / 7°C 93% 29.95 in
(1014 mb)
SE 10.4 mph
(SE 17 kph)
0.02 in
(0.51 mm)
1 1/2SM
16:53
Overcast
Light Rain
46°F / 8°C 45°F / 7°C 93% 29.95 in
(1014 mb)
SE 10.4 mph
(SE 17 kph)
0.03 in
(0.76 mm)
2 1/2SM
15:53
Overcast
Light Rain
46°F / 8°C 45°F / 7°C 93% 29.98 in
(1015 mb)
SE 15 mph
(SE 24 kph)
0.04 in
(1.02 mm)
2 1/2SM
15:04
Overcast
Light Rain
46°F / 8°C 45°F / 7°C 93% 29.98 in
(1015 mb)
SE 9.2 mph
(SE 15 kph)
0.01 in
(0.25 mm)
2SM
15:00
Overcast
Light Rain
46°F / 8°C 45°F / 7°C 93% 30.01 in
(1016 mb)
SE 8.1 mph
(SE 13 kph)
0.00 in
(0.00 mm)
1 3/4SM
14:53
Overcast
Light Rain
45°F / 7°C 45°F / 7°C 100% 30.01 in
(1016 mb)
SE 9.2 mph
(SE 15 kph)
0.11 in
(2.79 mm)
2SM
14:46
Overcast
Light Rain
45°F / 7°C 45°F / 7°C 100% 30.01 in
(1016 mb)
SE 8.1 mph
(SE 13 kph)
0.10 in
(2.54 mm)
2SM
14:38
Overcast
Rain
45°F / 7°C 43°F / 6°C 93% 30.01 in
(1016 mb)
SE 10.4 mph
(SE 17 kph)
0.10 in
(2.54 mm)
1 1/2SM
14:30
Overcast
Rain
45°F / 7°C 43°F / 6°C 93% 30.01 in
(1016 mb)
SSE 9.2 mph
(SSE 15 kph)
0.08 in
(2.03 mm)
1 1/4SM
14:03
Overcast
Light Rain
45°F / 7°C 43°F / 6°C 93% 30.01 in
(1016 mb)
SE 6.9 mph
(SE 11 kph)
0.01 in
(0.25 mm)
1SM
13:53
Overcast
Light Rain
45°F / 7°C 43°F / 6°C 93% 30.01 in
(1016 mb)
SSE 5.8 mph
(SSE 9 kph)
0.00 in
(0.00 mm)
2 1/2SM
13:33
Overcast
Fog And Mist
45°F / 7°C 41°F / 5°C 87% 30.04 in
(1017 mb)
SE 9.2 mph
(SE 15 kph)
0.00 in
(0.00 mm)
6SM
13:23
Overcast
Light Rain
46°F / 8°C 39°F / 4°C 76% 30.04 in
(1017 mb)
SE 13.8 mph
(SE 22 kph)
0.00 in
(0.00 mm)
2SM
12:53
Overcast
48°F / 9°C 37°F / 3°C 66% 30.04 in
(1017 mb)
SE 13.8 mph
(SE 22 kph)
- 10SM
11:53
Overcast
48°F / 9°C 36°F / 2°C 62% 30.09 in
(1019 mb)
SE 13.8 mph
(SE 22 kph)
0.00 in
(0.00 mm)
10SM
10:53
Overcast
48°F / 9°C 34°F / 1°C 58% 30.12 in
(1020 mb)
SE 15 mph
(SE 24 kph)
- 10SM
10:44
Overcast
48°F / 9°C 34°F / 1°C 58% 30.12 in
(1020 mb)
SE 17.3 mph
(SE 28 kph)
- 10SM
09:53
Overcast
46°F / 8°C 34°F / 1°C 62% 30.15 in
(1021 mb)
SE 15 mph
(SE 24 kph)
- 10SM
08:53
Overcast
46°F / 8°C 34°F / 1°C 62% 30.15 in
(1021 mb)
SE 13.8 mph
(SE 22 kph)
- 10SM
07:53
Mostly Cloudy
46°F / 8°C 32°F / 0°C 57% 30.15 in
(1021 mb)
SE 11.5 mph
(SE 19 kph)
- 10SM
06:53
Mostly Cloudy
46°F / 8°C 32°F / 0°C 57% 30.15 in
(1021 mb)
SE 12.7 mph
(SE 20 kph)
- 10SM
05:53
Overcast
46°F / 8°C 32°F / 0°C 57% 30.15 in
(1021 mb)
SE 9.2 mph
(SE 15 kph)
- 10SM
04:53
Overcast
48°F / 9°C 32°F / 0°C 54% 30.15 in
(1021 mb)
SE 12.7 mph
(SE 20 kph)
- 10SM
03:53
Overcast
48°F / 9°C 32°F / 0°C 54% 30.18 in
(1022 mb)
SE 9.2 mph
(SE 15 kph)
- 10SM
02:53
Clear
46°F / 8°C 30°F / -1°C 53% 30.18 in
(1022 mb)
SE 10.4 mph
(SE 17 kph)
- 10SM
01:53
Overcast
48°F / 9°C 32°F / 0°C 54% 30.21 in
(1023 mb)
SE 12.7 mph
(SE 20 kph)
- 10SM
00:53
Partly Cloudy
48°F / 9°C 32°F / 0°C 54% 30.24 in
(1024 mb)
SE 8.1 mph
(SE 13 kph)
- 10SM
Time Weather Temperature Dewpoint Humidity Pressure Winds Precip Visibility


Weather for websites

WeatherForYou.com, LLC is not responsible for any damages or problems caused by this service. Current weather conditions are obtained from the closest station including government and personal stations which may have varying degrees of accuracy. Weather forecasts are derived from the NOAA NDFD. Like all things, this site belongs to Jesus Christ... He just trusts me to maintain it. If you have any questions or comments email webmaster@weatherforyou.com

Copyright © 2015, WeatherForYou.com LLC. All rights reserved.